SPAINSAT NG I

Last updated on Mon Sep 07 2026 00:03:02 GMT+0000 (Coordinated Universal Time)

1 62852U 25021A 26249.28169773 .00000000 00000+0 00000+0 0 9997 2 62852 0.0235 126.6756 0000205 147.1315 201.9681 1.00270062 4804
UTC large
Height (km)
Speed (km/s)
/
Latitude / Longitude
Inclination (degrees)
Orbital Period (minutes)
Azimuth
Elevation
Range (km)
Doppler Factor

Next 0 passes for location: London (51.5072 / 0.1276)

No passes found over London.
SPAINSAT NG I